BREEZE-M DEB (TANK), 41390

Orbit data source: Space-Track

BREEZE-M DEB (TANK), 41390 is space debris in HEO originally from a launch on Mon, 14 Mar 2016 UTC launched from the Tyuratam Missile And Space Complex (TTMTR). Debris objects in space refer to the collection of defunct objects orbiting the Earth. Examples of debris include non-operational satellites, rocket bodies, and fragments generated from explosions, collisions, or faulty payload assembly.

Loading next visibility...
BREEZE-M DEB (TANK) details
Identifier
41390, 2016-017C
Orbit
HEO
Last TLE update21 hours ago
Origin
Flag of CISKhrunichev (CIS)
ManufacturerKhrunichev
MissionSpacecraft
Bus & MotorBRIZ TANK, Unknown motor
Mass~1,000 kg wet, 1,000 kg dry
Launch date (UTC)
2016-03-14 (9 years ago)
Launch vehicleUnknown
Launch site
Tyuratam Missile And Space Complex (TTMTR)
Object type
Payload
Rocket body
Debris
Shape & HBRTorus, 4 m
Radar Cross Section8.218 m², Large (>1 m²)

Expand to show TLE details & history

TLE from 21 hours ago
0 BREEZE-M DEB (TANK)
1 41390U 16017C   25018.16299002 -.00000026  00000-0  68414-3 0  9992
2 41390  51.6249 302.5593 5890003 111.5998 318.8398  3.82652932123705
Epoch: 2025-01-18T03:54Z
Definitive object data (Epoch: 2025-01-18T03:54:42.337Z)
Latitude0.00003°
Longitude126.05818°
Altitude8,020.56 km
Speed5.682 km/s
True Right ascension20h 10m 12s
True Declination0° 00' 00"
Sunlit
Object was in daylight at TLE epoch
Visualization TLE readout
Latitude-49.73866°
Longitude14.59475°
Altitude15,328.479 km
Speed3.696 km/s
Apparent Right ascension13h 01m 19s
Apparent Declination-47° 39' 17"
Sunlit
Object is in daylight
Visualization observer readout
Local Sidereal Time01:50:17
Azimuth135.331° SSE
Elevation-78.278°
Doppler factor1
Orbital elements
Apogee altitude21,058.585 km
Perigee altitude718.453 km
Semi-major axis17,266.656 km
Eccentricity0.5890003
Inclination51.6249°
RAAN302.5593°
Arg. of periapsis111.5998°
True anomaly248.4946°
Mean anomaly318.8398°
Eccentric anomaly286.47873°
Mean motion0.9566 °/min
BSTAR0.00068414
Orbital period376.33 mins
Loading maneuver chart data...
Loading historical data...
Loading historical data...
Loading historical data...
Loading historical data...
Loading historical data...
Loading historical data...
Loading historical data...
Other satellites on launch #17 in the year 2016 (2016-03-14 UTC)

BREEZE-M DEB (TANK) Visibility forecast

Observer location: undefined°, undefined

Span
Click to sort rows by Start time (UTC) header in descending order
Start Az.
Max El. time (UTC)
Max El. Az.
Max El.
End time (UTC)
End Az.
10 mins2025-01-19 05:46:02.682Z275.679° WNW2025-01-19 05:49:02.682Z218.374° SW28.534°2025-01-19 05:56:02.682Z160.001° S
55 mins2025-01-19 17:01:02.682Z162.146° S2025-01-19 17:42:02.682Z130.2° SE20.146°2025-01-19 17:56:02.682Z90.388° ESE
13 mins2025-01-20 00:15:02.682Z275.573° WNW2025-01-20 00:24:02.682Z331.202° NNW29.504°2025-01-20 00:28:02.682Z39.596° NE
|